Content
SEND FEEDBACK

Daily
Averages
Monthly
Summary
United States of America

MCCOLL, SOUTH CAROLINA


Home > North America > United States > South Carolina
Elevation: 212 feet     Latitude: 34 43N     Longitude: 079 34W

WEATHER
 
SELECT A DAY
Number of Records: 129,122;   Date Range: 4/3/09 - 8/21/14
 
SHARE

PRINT THIS DATA

[ ← Previous Day ]
WEATHER ALMANAC - JANUARY 31, 2013
[ Next Day → ]
[ °C ]   °F
Weather ElementAverageHighLow
Temperature50 °F55.4 °F (1:55 am)42.8 °F (10:15 pm)
Dewpoint32.5 °F51.8 °F (12:35 am)23 °F (3:35 pm)
Humidity53.1 %94 % (12:35 am)30 % (3:35 pm)
Barometer29.89 in30.10 in (11:55 pm)29.63 in (12:35 am)
Wind Speed14 mph26.5 mph (3:55 am)
Wind Gust35.7 mph (4:35 am)
Weather ElementAverage
Visibility9.9 mi
Wind DirectionWSW (245.2 °)

Weather ElementTotal
Precipitation0.04 in
Heating Degree Days15.9 (Base 65)
Averaged from 71 records on January 31, 2013
WEATHER CONDITIONS BREAKOUT
WIND DIRECTION BREAKOUT
WEATHER BY HOUR - JANUARY 31, 2013
[ °C ]   °F
Local TimeTemperatureDewpointHumidityBarometerVisibilityWind DirectionWind SpeedGust SpeedPrecipitationEventsConditions
12:35 AM53.6 °F51.8 °F94 %29.63 in5.0 miWSW (240°)8.1 mph23.0 mph0.01 inRainLight Rain
12:55 AM53.6 °F51.8 °F94 %29.64 in5.0 miSW (230°)15.0 mph20.7 mph0.03 inRainRain
1:15 AM53.6 °F50.0 °F88 %29.63 in10.0 miSW (220°)12.7 mph19.6 mphOvercast
1:35 AM53.6 °F50.0 °F88 %29.64 in10.0 miWSW (240°)10.4 mph17.3 mphOvercast
1:55 AM55.4 °F50.0 °F82 %29.64 in10.0 miSW (230°)16.1 mph23.0 mphOvercast
2:15 AM55.4 °F46.4 °F72 %29.64 in10.0 miSW (230°)19.6 mph24.2 mphOvercast
2:35 AM55.4 °F48.2 °F77 %29.64 in10.0 miSW (230°)12.7 mph24.2 mphOvercast
2:55 AM55.4 °F50.0 °F82 %29.65 in10.0 miSW (230°)10.4 mph18.4 mphOvercast
3:15 AM55.4 °F48.2 °F77 %29.65 in10.0 miSW (220°)19.6 mph28.8 mphOvercast
3:35 AM55.4 °F44.6 °F67 %29.67 in10.0 miWSW (240°)21.9 mph29.9 mphMostly Cloudy
3:55 AM53.6 °F42.8 °F67 %29.67 in10.0 miWSW (250°)26.5 mph32.2 mphMostly Cloudy
4:15 AM53.6 °F39.2 °F58 %29.69 in10.0 miWSW (240°)24.2 mph32.2 mphScattered Clouds
4:35 AM51.8 °F37.4 °F58 %29.70 in10.0 miWSW (240°)20.7 mph35.7 mphClear
4:55 AM51.8 °F37.4 °F58 %29.72 in10.0 miWSW (240°)18.4 mph28.8 mphClear
5:15 AM50.0 °F35.6 °F58 %29.73 in10.0 miWSW (250°)21.9 mph34.5 mphScattered Clouds
5:35 AM50.0 °F35.6 °F58 %29.74 in10.0 miSW (230°)16.1 mph25.3 mphClear
5:55 AM48.2 °F35.6 °F62 %29.76 in10.0 miWSW (250°)15.0 mph24.2 mphClear
6:15 AM48.2 °F33.8 °F58 %29.77 in10.0 miWSW (240°)19.6 mph31.1 mphClear
6:35 AM46.4 °F33.8 °F62 %29.79 in10.0 miWSW (240°)23.0 mph33.4 mphClear
6:55 AM46.4 °F33.8 °F62 %29.80 in10.0 miWSW (250°)12.7 mph24.2 mphClear
7:15 AM46.4 °F33.8 °F62 %29.82 in10.0 miWSW (250°)13.8 mph21.9 mphClear
7:35 AM46.4 °F33.8 °F62 %29.84 in10.0 miWSW (240°)15.0 mphClear
7:55 AM46.4 °F32.0 °F57 %29.85 in10.0 miWSW (250°)15.0 mph19.6 mphClear
8:15 AM46.4 °F32.0 °F57 %29.87 in10.0 miWSW (250°)15.0 mph21.9 mphClear
8:35 AM46.4 °F32.0 °F57 %29.88 in10.0 miWest (260°)13.8 mph23.0 mphClear
8:55 AM46.4 °F32.0 °F57 %29.90 in10.0 miWest (270°)19.6 mph25.3 mphClear
9:15 AM46.4 °F32.0 °F57 %29.91 in10.0 miWest (270°)16.1 mph25.3 mphClear
9:35 AM46.4 °F32.0 °F57 %29.92 in10.0 miWest (280°)18.4 mph26.5 mphClear
9:55 AM48.2 °F32.0 °F54 %29.93 in10.0 miWest (270°)17.3 mph25.3 mphClear
10:15 AM50.0 °F32.0 °F50 %29.94 in10.0 miWest (270°)12.7 mph20.7 mphClear
10:35 AM50.0 °F32.0 °F50 %29.94 in10.0 miWest (260°)15.0 mph20.7 mphClear
10:55 AM50.0 °F32.0 °F50 %29.95 in10.0 miWest (270°)15.0 mph21.9 mphClear
11:15 AM50.0 °F30.2 °F47 %29.94 in10.0 miWNW (290°)15.0 mph23.0 mphClear
11:35 AM51.8 °F30.2 °F44 %29.93 in10.0 miWest (270°)12.7 mph19.6 mphClear
11:55 AM51.8 °F28.4 °F41 %29.93 in10.0 miWSW (250°)18.4 mph24.2 mphClear
12:15 PM51.8 °F28.4 °F41 %29.93 in10.0 miWest (260°)17.3 mph24.2 mphClear
12:35 PM51.8 °F28.4 °F41 %29.93 in10.0 miWSW (250°)15.0 mph20.7 mphClear
12:55 PM53.6 °F28.4 °F38 %29.92 in10.0 miWest (270°)16.1 mph24.2 mphClear
1:15 PM53.6 °F28.4 °F38 %29.92 in10.0 miWest (260°)16.1 mph21.9 mphClear
1:35 PM53.6 °F28.4 °F38 %29.91 in10.0 miWest (270°)13.8 mph19.6 mphClear
1:55 PM53.6 °F28.4 °F38 %29.92 in10.0 miWest (270°)15.0 mph24.2 mphClear
2:15 PM53.6 °F26.6 °F35 %29.92 in10.0 miWSW (250°)16.1 mph21.9 mphClear
2:35 PM53.6 °F26.6 °F35 %29.92 in10.0 miWest (280°)16.1 mph21.9 mphClear
2:55 PM55.4 °F26.6 °F33 %29.93 in10.0 miWest (260°)13.8 mph18.4 mphClear
3:15 PM55.4 °F26.6 °F33 %29.93 in10.0 miWSW (250°)15.0 mph25.3 mphClear
3:35 PM53.6 °F23.0 °F30 %29.94 in10.0 miWest (270°)17.3 mph24.2 mphClear
3:55 PM53.6 °F24.8 °F33 %29.95 in10.0 miWest (260°)21.9 mph28.8 mphClear
4:15 PM53.6 °F24.8 °F33 %29.96 in10.0 miWest (280°)16.1 mph21.9 mphClear
4:35 PM53.6 °F24.8 °F33 %29.98 in10.0 miWest (270°)17.3 mph31.1 mphClear
4:55 PM53.6 °F23.0 °F30 %29.98 in10.0 miWSW (250°)16.1 mph23.0 mphClear
5:15 PM51.8 °F24.8 °F35 %29.98 in10.0 miWest (270°)16.1 mph23.0 mphClear
5:35 PM51.8 °F24.8 °F35 %29.99 in10.0 miWSW (250°)10.4 mphClear
5:55 PM50.0 °F24.8 °F37 %30.00 in10.0 miWest (260°)8.1 mphClear
6:15 PM50.0 °F24.8 °F37 %30.01 in10.0 miWSW (240°)5.8 mphClear
6:35 PM50.0 °F24.8 °F37 %30.01 in10.0 miSW (230°)4.6 mphClear
6:55 PM48.2 °F26.6 °F43 %30.03 in10.0 miWSW (240°)6.9 mphClear
7:15 PM46.4 °F28.4 °F50 %30.03 in10.0 miSW (220°)6.9 mphClear
7:35 PM46.4 °F28.4 °F50 %30.04 in10.0 miSW (220°)8.1 mphClear
7:55 PM46.4 °F28.4 °F50 %30.04 in10.0 miSW (220°)9.2 mphClear
8:15 PM46.4 °F28.4 °F50 %30.05 in10.0 miSW (220°)9.2 mphClear
8:35 PM44.6 °F28.4 °F53 %30.05 in10.0 miSSW (200°)5.8 mphClear
8:55 PM44.6 °F28.4 °F53 %30.06 in10.0 miSW (220°)5.8 mphClear
9:15 PM44.6 °F28.4 °F53 %30.06 in10.0 miSW (220°)6.9 mphClear
9:35 PM44.6 °F28.4 °F53 %30.07 in10.0 miSW (220°)8.1 mphClear
9:55 PM44.6 °F28.4 °F53 %30.07 in10.0 miSW (220°)9.2 mphClear
10:15 PM42.8 °F28.4 °F57 %30.07 in10.0 miSSW (210°)9.2 mphClear
10:35 PM42.8 °F28.4 °F57 %30.07 in10.0 miSW (220°)9.2 mphClear
10:55 PM44.6 °F28.4 °F53 %30.08 in10.0 miSW (220°)11.5 mphClear
11:15 PM44.6 °F28.4 °F53 %30.09 in10.0 miSW (230°)9.2 mphClear
11:35 PM44.6 °F28.4 °F53 %30.09 in10.0 miSW (220°)8.1 mphClear
11:55 PM44.6 °F28.4 °F53 %30.10 in10.0 miSW (220°)8.1 mphClear
Hourly data recorded from KBBP, located miles away from McColl, South Carolina







STORIES FROM OUR PARTNERS